TimeMST,TemperatureF,Dew PointF,Humidity,Sea Level PressureIn,VisibilityMPH,Wind Direction,Wind SpeedMPH,Gust SpeedMPH,PrecipitationIn,Events,Conditions,WindDirDegrees,DateUTC
12:14 AM,24.8,21.2,86,30.19,10.0,SSW,4.6,-,N/A,,Clear,200,2012-11-24 07:14:00
12:34 AM,25.9,21.2,82,30.18,10.0,SSW,3.5,-,N/A,,Clear,210,2012-11-24 07:34:00
12:54 AM,25.0,21.0,85,30.18,10.0,Calm,Calm,-,N/A,,Clear,0,2012-11-24 07:54:00
1:14 AM,25.7,21.2,83,30.15,10.0,Calm,Calm,-,N/A,,Clear,0,2012-11-24 08:14:00
1:34 AM,25.7,21.7,85,30.16,10.0,SW,3.5,-,N/A,,Clear,230,2012-11-24 08:34:00
1:54 AM,25.5,21.7,86,30.16,10.0,NNE,3.5,-,N/A,,Clear,30,2012-11-24 08:54:00
2:14 AM,25.9,22.5,87,30.16,10.0,Calm,Calm,-,N/A,,Clear,0,2012-11-24 09:14:00
2:34 AM,26.2,22.8,87,30.15,10.0,SSW,4.6,-,N/A,,Clear,210,2012-11-24 09:34:00
2:54 AM,26.6,23.0,86,30.14,10.0,SSE,3.5,-,N/A,,Clear,160,2012-11-24 09:54:00
3:14 AM,29.1,23.7,80,30.13,10.0,Calm,Calm,-,N/A,,Clear,0,2012-11-24 10:14:00
3:34 AM,29.8,23.5,77,30.11,10.0,Calm,Calm,-,N/A,,Clear,0,2012-11-24 10:34:00
3:54 AM,29.8,24.4,80,30.11,10.0,Calm,Calm,-,N/A,,Clear,0,2012-11-24 10:54:00
4:14 AM,30.0,24.8,81,30.09,10.0,Calm,Calm,-,N/A,,Clear,0,2012-11-24 11:14:00
4:34 AM,31.1,24.8,77,30.09,10.0,North,8.1,-,N/A,,Clear,10,2012-11-24 11:34:00
5:14 AM,30.7,25.5,81,30.09,10.0,Calm,Calm,-,N/A,,Clear,0,2012-11-24 12:14:00
5:34 AM,32.0,24.8,75,30.08,10.0,Calm,Calm,-,N/A,,Clear,0,2012-11-24 12:34:00
5:54 AM,31.1,25.9,81,30.07,10.0,Calm,Calm,-,N/A,,Clear,0,2012-11-24 12:54:00
6:14 AM,31.1,26.4,83,30.07,10.0,Calm,Calm,-,N/A,,Clear,0,2012-11-24 13:14:00
6:34 AM,30.9,26.6,84,30.07,10.0,North,4.6,-,N/A,,Clear,360,2012-11-24 13:34:00
6:54 AM,31.6,26.4,81,30.06,10.0,Calm,Calm,-,N/A,,Clear,0,2012-11-24 13:54:00
7:14 AM,32.0,26.4,80,30.07,10.0,North,4.6,-,N/A,,Clear,10,2012-11-24 14:14:00
7:34 AM,32.5,26.1,77,30.06,10.0,Calm,Calm,-,N/A,,Clear,0,2012-11-24 14:34:00
7:54 AM,33.6,26.8,76,30.06,10.0,Calm,Calm,-,N/A,,Clear,0,2012-11-24 14:54:00
8:14 AM,34.3,27.3,76,30.05,10.0,SW,4.6,-,N/A,,Clear,230,2012-11-24 15:14:00
8:34 AM,36.7,26.1,65,30.05,10.0,Calm,Calm,-,N/A,,Clear,0,2012-11-24 15:34:00
8:54 AM,36.3,27.7,71,30.04,10.0,Calm,Calm,-,N/A,,Clear,0,2012-11-24 15:54:00
9:14 AM,38.5,28.6,68,30.05,10.0,Calm,Calm,-,N/A,,Clear,0,2012-11-24 16:14:00
9:34 AM,42.4,28.9,59,30.04,10.0,South,4.6,-,N/A,,Clear,170,2012-11-24 16:34:00
9:54 AM,43.9,29.1,56,30.04,10.0,Calm,Calm,-,N/A,,Clear,0,2012-11-24 16:54:00
10:14 AM,43.2,30.7,62,30.05,10.0,North,4.6,-,N/A,,Clear,360,2012-11-24 17:14:00
10:34 AM,43.9,28.0,54,30.04,10.0,North,5.8,-,N/A,,Clear,360,2012-11-24 17:34:00
10:54 AM,45.1,26.4,48,30.04,10.0,Calm,Calm,-,N/A,,Clear,0,2012-11-24 17:54:00
11:14 AM,45.7,28.6,51,30.02,10.0,SSE,4.6,-,N/A,,Clear,160,2012-11-24 18:14:00
11:34 AM,46.4,27.3,47,30.01,10.0,Calm,Calm,-,N/A,,Clear,0,2012-11-24 18:34:00
11:54 AM,46.8,27.9,48,30.01,10.0,West,3.5,-,N/A,,Clear,280,2012-11-24 18:54:00
12:14 PM,48.9,22.6,36,30.00,10.0,West,10.4,17.3,N/A,,Clear,260,2012-11-24 19:14:00
12:34 PM,59.9,12.9,16,30.00,10.0,West,9.2,16.1,N/A,,Clear,270,2012-11-24 19:34:00
12:54 PM,62.2,8.6,12,29.99,7.0,WSW,16.1,29.9,N/A,,Clear,250,2012-11-24 19:54:00
1:14 PM,61.7,9.7,13,29.97,10.0,West,13.8,26.5,N/A,,Clear,260,2012-11-24 20:14:00
1:34 PM,61.9,9.3,13,29.96,10.0,West,19.6,25.3,N/A,,Clear,270,2012-11-24 20:34:00
1:54 PM,61.2,9.9,13,29.96,10.0,West,12.7,19.6,N/A,,Clear,260,2012-11-24 20:54:00
2:14 PM,60.6,10.9,14,29.96,10.0,SW,8.1,19.6,N/A,,Clear,230,2012-11-24 21:14:00
2:34 PM,60.4,10.4,14,29.96,10.0,Calm,Calm,-,N/A,,Clear,0,2012-11-24 21:34:00
2:54 PM,58.1,13.5,17,29.96,10.0,WSW,8.1,-,N/A,,Clear,240,2012-11-24 21:54:00
3:14 PM,59.4,12.7,16,29.96,10.0,West,8.1,-,N/A,,Clear,280,2012-11-24 22:14:00
3:34 PM,61.5,9.1,13,29.96,10.0,WSW,5.8,-,N/A,,Clear,250,2012-11-24 22:34:00
3:54 PM,63.5,10.0,12,29.96,10.0,WSW,13.8,-,N/A,,Clear,250,2012-11-24 22:54:00
4:14 PM,62.6,11.7,14,29.96,10.0,West,10.4,-,N/A,,Clear,270,2012-11-24 23:14:00
4:34 PM,59.9,11.1,15,29.97,10.0,West,13.8,-,N/A,,Clear,280,2012-11-24 23:34:00
4:54 PM,58.5,11.7,16,29.97,10.0,NW,9.2,-,N/A,,Clear,310,2012-11-24 23:54:00
5:14 PM,57.4,12.0,17,29.98,10.0,WNW,4.6,-,N/A,,Clear,290,2012-11-25 00:14:00
5:34 PM,55.9,11.8,17,29.98,10.0,West,3.5,-,N/A,,Clear,280,2012-11-25 00:34:00
5:54 PM,49.6,15.3,25,29.98,10.0,WSW,6.9,-,N/A,,Clear,240,2012-11-25 00:54:00
6:14 PM,55.9,11.8,17,29.98,10.0,WSW,11.5,-,N/A,,Clear,250,2012-11-25 01:14:00
6:34 PM,52.7,13.8,21,29.97,10.0,WSW,11.5,-,N/A,,Clear,250,2012-11-25 01:34:00
6:54 PM,54.9,12.9,19,29.97,10.0,West,13.8,-,N/A,,Clear,270,2012-11-25 01:54:00
7:14 PM,55.4,11.8,18,29.97,10.0,West,11.5,-,N/A,,Clear,280,2012-11-25 02:14:00
7:34 PM,55.8,12.2,18,29.96,10.0,WNW,13.8,25.3,N/A,,Clear,290,2012-11-25 02:34:00
7:54 PM,54.7,13.1,19,29.96,10.0,WNW,17.3,23.0,N/A,,Clear,290,2012-11-25 02:54:00
8:14 PM,54.3,12.9,19,29.96,10.0,West,13.8,-,N/A,,Clear,280,2012-11-25 03:14:00
8:34 PM,55.6,11.1,17,29.97,10.0,WNW,15.0,23.0,N/A,,Clear,290,2012-11-25 03:34:00
8:54 PM,51.4,12.7,21,29.98,10.0,ENE,4.6,-,N/A,,Clear,70,2012-11-25 03:54:00
9:14 PM,51.3,12.7,22,29.98,10.0,West,5.8,-,N/A,,Clear,260,2012-11-25 04:14:00
9:34 PM,48.4,13.1,24,29.99,10.0,Calm,Calm,-,N/A,,Clear,0,2012-11-25 04:34:00
9:54 PM,51.6,11.3,20,29.99,10.0,Calm,Calm,-,N/A,,Clear,0,2012-11-25 04:54:00
10:14 PM,48.7,12.7,24,29.99,10.0,West,5.8,-,N/A,,Clear,260,2012-11-25 05:14:00
10:34 PM,51.6,12.2,21,29.97,10.0,WSW,8.1,-,N/A,,Clear,240,2012-11-25 05:34:00
10:54 PM,50.4,12.2,22,29.97,10.0,ENE,3.5,-,N/A,,Clear,70,2012-11-25 05:54:00
11:14 PM,50.2,12.4,22,29.97,10.0,East,5.8,-,N/A,,Clear,90,2012-11-25 06:14:00
11:34 PM,47.1,12.9,25,29.97,10.0,Calm,Calm,-,N/A,,Clear,0,2012-11-25 06:34:00
11:54 PM,52.2,11.7,20,29.97,10.0,WSW,6.9,-,N/A,,Clear,240,2012-11-25 06:54:00